Date,TemperatureHighF,TemperatureAvgF,TemperatureLowF,DewpointHighF,DewpointAvgF,DewpointLowF,HumidityHigh,HumidityAvg,HumidityLow,PressureMaxIn,PressureMinIn,WindSpeedMaxMPH,WindSpeedAvgMPH,GustSpeedMaxMPH,PrecipitationSumIn
2014-1-1,62.8,52.4,43.7,28.6,17.9,4.6,36,27,10,30.18,29.88,2,0,5,0.08
2014-1-2,60.8,52.1,35.6,37.8,12.0,-15.5,46,24,10,30.17,29.74,13,3,27,0.32
2014-1-3,45.1,34.7,28.0,-8.1,-16.2,-21.4,10,10,10,30.28,30.14,10,2,17,0.00
2014-1-4,61.7,46.1,27.9,4.6,-7.4,-21.6,10,10,10,30.15,29.88,8,1,14,0.00
2014-1-5,69.3,56.7,44.1,31.2,4.3,-9.0,30,12,10,29.89,29.69,14,2,26,0.01
2014-1-6,44.1,32.4,23.9,-9.0,-18.0,-24.6,10,10,10,30.42,29.88,16,5,27,0.06
2014-1-7,36.5,29.2,21.6,-14.8,-20.5,-26.5,10,10,10,30.46,30.35,7,1,12,0.00
2014-1-8,49.5,33.0,19.4,-4.9,-17.6,-28.2,10,10,10,30.38,30.20,6,1,8,0.00
2014-1-9,66.0,45.7,29.8,7.8,-7.3,-20.0,19,10,10,30.21,30.06,8,1,15,0.00
2014-1-10,68.4,58.2,48.0,48.5,23.2,5.0,49,27,10,30.06,29.75,8,1,14,0.09
2014-1-11,78.3,65.7,43.0,53.3,24.8,-9.8,55,28,10,29.93,29.65,12,3,21,0.37
2014-1-12,71.2,50.7,35.2,11.9,-2.2,-13.2,24,11,10,30.07,29.93,11,1,14,0.00
2014-1-13,61.9,56.0,43.5,39.3,26.9,-9.4,45,34,10,29.95,29.69,8,2,13,0.63
2014-1-14,66.9,54.5,42.1,38.8,7.4,-10.2,45,17,10,29.94,29.74,6,1,13,0.01
2014-1-15,55.8,44.8,32.7,4.7,-6.2,-17.8,22,11,10,30.05,29.88,11,2,19,0.00
2014-1-16,57.2,41.4,25.7,1.2,-11.1,-23.2,11,10,10,30.07,29.92,11,1,15,0.00
2014-1-17,63.7,48.9,32.5,10.8,-2.7,-17.9,23,12,10,30.08,29.92,8,1,20,0.00
2014-1-18,59.7,42.4,25.0,3.0,-10.3,-23.8,10,10,10,30.17,29.95,9,1,14,0.00
2014-1-19,65.3,51.2,36.9,20.3,0.1,-14.6,31,13,10,30.07,29.92,6,1,11,0.05
2014-1-20,69.1,47.9,31.5,10.1,-2.5,-15.2,23,12,10,29.98,29.80,8,1,11,0.00
2014-1-21,60.8,51.0,33.8,31.8,3.0,-16.9,38,15,10,30.04,29.75,13,4,27,0.04
2014-1-22,52.7,38.2,27.0,-2.3,-13.5,-22.3,10,10,10,30.10,29.98,7,1,12,0.00
2014-1-23,57.9,44.2,30.9,1.7,-8.3,-19.2,15,10,10,30.40,30.03,8,2,16,0.00
2014-1-24,38.8,33.4,31.3,-13.0,-17.2,-19.0,10,10,10,30.44,30.16,8,2,18,0.00
2014-1-25,63.1,44.6,32.2,5.7,-8.6,-18.2,10,10,10,30.17,29.84,8,1,11,0.00
2014-1-26,62.1,47.9,33.4,6.9,-4.0,-15.7,22,11,10,29.91,29.73,8,1,11,0.00
2014-1-27,68.7,57.5,45.7,41.3,12.4,-8.0,43,19,10,29.93,29.71,9,2,18,0.17
2014-1-28,45.5,32.8,25.2,-8.0,-17.4,-23.7,13,10,10,30.16,29.90,10,4,19,0.00
2014-1-29,34.9,27.3,20.5,-16.1,-22.0,-27.3,10,10,10,30.29,30.13,11,3,21,0.00
2014-1-30,51.4,31.7,17.1,-3.3,-18.6,-30.0,10,10,10,30.19,29.99,7,1,11,0.02
2014-1-31,64.9,43.6,26.1,7.1,-7.1,-23.0,19,11,10,30.05,29.90,8,1,12,0.00